Location: Campavaglio
(41.1333°N, 9.2333°E)
Time: 22:03:53
(UTC+00:00)

CZ-4B R/B - Pass Details

Date: 07 June 2020
Orbit: 392 x 464 km, 97.6° (Epoch: 11 July)

Event Time Altitude Azimuth Distance (km) Brightness Sun altitude
Rises 03:10:49 0° 155° (SSE) 2,288 4.8 -7.0°
Reaches altitude 10° 03:12:48 10° 149° (SSE) 1,442 3.9 -6.7°
Maximum altitude 03:15:45 46° 74° (ENE) 551 2.4 -6.2°
Drops below altitude 10° 03:18:48 10° 360° (N) 1,482 4.6 -5.8°
Sets 03:20:52 0° 354° (N) 2,361 5.5 -5.5°
